STARLINK-33845, 63495

Orbit data source: Space-Track

STARLINK-33845, 63495 is a payload satellite owned by SpaceX/Seattle (US) in LEO that was launched on Mon, 07 Apr 2025 UTC via an FALCON 9 launch vehicle from the Air Force Western Test Range (AFWTR). Payload-class satellites include a variety of spacecraft equipped with specific instruments for various scientific and technological missions. These include communications satellites like Starlink; space stations such as the ISS; scientific satellites like the Hubble; Earth observation satellites from companies like Planet Labs, Umbra, and HawkEye 360; GPS; miniature CubeSats for education and research; and military/defense satellites.

Loading next visibility...
Identifier
63495, 2025-071C
Orbit
LEO
Country
Flag of USUS
Related business
Manufacturer
SpaceX/Seattle
Mission
Operational Commercial Communications
Bus & Motor
STARLINK V2MO, Unknown motor
Mass
575 kg wet, ~530 kg dry
Launch date (UTC)
2025-04-07 (7 months ago)
Launch vehicle
FALCON 9
Launch site
Air Force Western Test Range (AFWTR)
Object type
Payload
Rocket body
Debris
Shape & HBR
Box + 2 Pan, 17.7 m
Radar Cross Section
36.964 m², Large (>1 m²)

Expand to show TLE details & history
Last TLE update: 13 hours ago

TLE from 13 hours ago
0 STARLINK-33845
1 63495U 25071C   25305.61756686  .00040990  00000-0  13886-2 0  9992
2 63495  53.1594  14.6542 0000935  54.9952 305.1137 15.30195983 33144
Epoch: 2025-11-01T14:49Z
TLE epoch observation values (Epoch: 2025-11-01T14:49:17.776Z)
Latitude
0.00001°
Longitude
111.18507°
Altitude
475.758 km
Speed
7.629 km/s
True Right ascension
00h 58m 37s
True Declination
0° 00' 00"
Sunlit
Object was in full shadow at epoch
Visualization orbit readout
Latitude
Unknown
Longitude
Unknown
Altitude
Unknown
Speed
Unknown
Apparent Right ascension
Unknown
Apparent Declination
Unknown
Sunlit
N/A
Visualization observer readout
Local Sidereal Time
23:57:19
Azimuth
Unknown
Elevation
Unknown
Doppler factor
Unknown
Orbital elements
Apogee altitude
476.124 km
Perigee altitude
474.843 km
Semi-major axis
6,853.621 km
Eccentricity
0.00009
Inclination
53.1594°
RAAN
14.6542°
Arg. of periapsis
54.9952°
True anomaly
305.10493°
Mean anomaly
305.1137°
Eccentric anomaly
305.10932°
Mean motion
3.82528 °/min
Orbital period
94.11 mins
BSTAR
0.0013886
Loading maneuver chart data...
Computing Atmospheric mass density...
Loading historical data...
Loading historical data...
Loading historical data...
Loading historical data...
Loading historical data...
Loading historical data...
Loading historical data...

Documentation

Showing up to 5 results
|